WAF920 TNCM-TJSJ

Flight info

Callsign WAF920
Flight time N/A
Altitude 6000
Route PJM DCT JUICE B520 STT RTE6 SJU
Aircraft TRIS/L-SFG/C

Departure

Time 2026-05-05 22:13
Airport Princess Juliana International Airport (TNCM)

Arrival

Time N/A
Airport Luis Munoz Marin International Airport (TJSJ)
Time Latitude Longitude Altitude Speed Heading
2026-05-05 22:03 18.04249 -63.11157 26 ft 0 kts 168°
2026-05-05 22:08 18.04248 -63.11157 26 ft 0 kts 187°
2026-05-05 22:09 18.04242 -63.11161 26 ft 2 kts 222°
2026-05-05 22:09 18.04219 -63.11215 26 ft 13 kts 257°
2026-05-05 22:09 18.04205 -63.11277 26 ft 6 kts 267°
2026-05-05 22:09 18.04221 -63.11320 26 ft 10 kts 317°
2026-05-05 22:10 18.04233 -63.11398 26 ft 13 kts 256°
2026-05-05 22:10 18.04207 -63.11492 27 ft 14 kts 226°
2026-05-05 22:10 18.04142 -63.11578 26 ft 16 kts 229°
2026-05-05 22:10 18.04072 -63.11668 26 ft 14 kts 239°
2026-05-05 22:11 18.04058 -63.11736 25 ft 8 kts 259°
2026-05-05 22:11 18.04045 -63.11819 25 ft 14 kts 262°
2026-05-05 22:11 18.04037 -63.11874 26 ft 3 kts 256°
2026-05-05 22:11 18.04010 -63.11927 28 ft 11 kts 233°
2026-05-05 22:12 18.03949 -63.11961 25 ft 14 kts 135°
2026-05-05 22:12 18.03956 -63.11847 26 ft 18 kts 82°
2026-05-05 22:12 18.03984 -63.11652 26 ft 46 kts 81°
2026-05-05 22:12 18.04071 -63.11085 27 ft 102 kts 81°
2026-05-05 22:13 18.04197 -63.10292 149 ft 120 kts 82°
2026-05-05 22:13 18.04248 -63.09417 534 ft 110 kts 102°
2026-05-05 22:13 18.03701 -63.08886 894 ft 124 kts 159°
2026-05-05 22:13 18.02854 -63.08839 1293 ft 120 kts 176°
2026-05-05 22:14 18.01992 -63.08825 1481 ft 126 kts 166°
2026-05-05 22:14 18.01089 -63.08670 1653 ft 136 kts 166°
2026-05-05 22:14 18.00138 -63.08505 1828 ft 139 kts 170°
2026-05-05 22:14 17.99173 -63.08718 2001 ft 149 kts 208°
2026-05-05 22:15 17.98649 -63.09650 2168 ft 157 kts 253°
2026-05-05 22:15 17.98406 -63.10773 2345 ft 158 kts 254°
2026-05-05 22:15 17.98159 -63.11878 2516 ft 151 kts 254°
2026-05-05 22:15 17.97940 -63.12930 2685 ft 145 kts 254°
2026-05-05 22:16 17.97741 -63.13960 2849 ft 143 kts 255°
2026-05-05 22:16 17.97549 -63.14977 3017 ft 140 kts 255°
2026-05-05 22:16 17.97370 -63.15970 3182 ft 139 kts 255°
2026-05-05 22:16 17.97197 -63.16963 3349 ft 137 kts 255°
2026-05-05 22:17 17.97033 -63.17948 3517 ft 136 kts 256°
2026-05-05 22:17 17.96877 -63.18918 3683 ft 135 kts 257°
2026-05-05 22:17 17.96728 -63.19889 3847 ft 134 kts 256°
2026-05-05 22:17 17.96586 -63.20856 4018 ft 133 kts 256°
2026-05-05 22:18 17.96452 -63.21810 4189 ft 133 kts 258°
2026-05-05 22:18 17.96324 -63.22768 4355 ft 132 kts 257°
2026-05-05 22:18 17.96203 -63.23717 4523 ft 130 kts 257°
2026-05-05 22:18 17.96091 -63.24658 4702 ft 129 kts 262°
2026-05-05 22:19 17.96217 -63.25594 4866 ft 129 kts 280°
2026-05-05 22:19 17.96391 -63.26513 5027 ft 128 kts 278°
2026-05-05 22:19 17.96573 -63.27410 5193 ft 126 kts 279°
2026-05-05 22:19 17.96754 -63.28309 5359 ft 125 kts 279°
2026-05-05 22:20 17.96929 -63.29192 5520 ft 122 kts 279°
2026-05-05 22:20 17.97095 -63.30062 5689 ft 120 kts 279°
2026-05-05 22:20 17.97258 -63.30910 5853 ft 117 kts 279°
2026-05-05 22:20 17.97420 -63.31734 6019 ft 113 kts 279°
2026-05-05 22:21 17.97576 -63.32549 6079 ft 120 kts 278°
2026-05-05 22:21 17.97742 -63.33446 6082 ft 129 kts 279°
2026-05-05 22:21 17.97918 -63.34396 6073 ft 137 kts 279°
2026-05-05 22:21 17.98055 -63.35070 6019 ft 145 kts 281°
2026-05-05 22:22 17.98350 -63.36482 6004 ft 151 kts 281°
2026-05-05 22:22 17.98497 -63.37195 6007 ft 151 kts 280°
2026-05-05 22:22 17.98719 -63.38276 6007 ft 151 kts 281°
2026-05-05 22:22 17.99012 -63.39709 6008 ft 152 kts 280°
2026-05-05 22:23 17.99163 -63.40445 6014 ft 152 kts 280°
2026-05-05 22:23 17.99384 -63.41523 6009 ft 153 kts 280°
2026-05-05 22:23 17.99609 -63.42611 6008 ft 153 kts 280°
2026-05-05 22:23 17.99830 -63.43702 6008 ft 153 kts 280°
2026-05-05 22:24 18.00058 -63.44800 6009 ft 153 kts 280°
2026-05-05 22:24 18.00287 -63.45897 6005 ft 154 kts 281°
2026-05-05 22:24 18.00558 -63.46980 6006 ft 153 kts 295°
2026-05-05 22:24 18.01151 -63.47891 6002 ft 153 kts 308°
2026-05-05 22:25 18.01775 -63.48804 6004 ft 153 kts 305°
2026-05-05 22:25 18.02374 -63.49730 6004 ft 153 kts 304°
2026-05-05 22:25 18.02959 -63.50648 6004 ft 153 kts 303°
2026-05-05 22:25 18.03549 -63.51579 6004 ft 153 kts 303°
2026-05-05 22:26 18.04142 -63.52516 6005 ft 154 kts 303°
2026-05-05 22:26 18.04739 -63.53461 6004 ft 155 kts 303°
2026-05-05 22:26 18.05339 -63.54407 6006 ft 156 kts 303°
2026-05-05 22:26 18.05933 -63.55345 6008 ft 156 kts 303°
2026-05-05 22:27 18.06536 -63.56297 6005 ft 156 kts 303°
2026-05-05 22:27 18.07137 -63.57246 6008 ft 154 kts 303°
2026-05-05 22:27 18.07716 -63.58160 6005 ft 147 kts 303°
2026-05-05 22:27 18.08274 -63.59043 6001 ft 142 kts 303°
2026-05-05 22:28 18.08811 -63.59892 5992 ft 139 kts 303°
2026-05-05 22:28 18.09344 -63.60734 5992 ft 137 kts 303°
2026-05-05 22:28 18.09869 -63.61563 5992 ft 135 kts 303°
2026-05-05 22:28 18.10386 -63.62381 5993 ft 134 kts 303°
2026-05-05 22:29 18.10899 -63.63191 5990 ft 132 kts 303°
2026-05-05 22:29 18.11407 -63.63995 5994 ft 131 kts 303°
2026-05-05 22:29 18.11913 -63.64795 5993 ft 131 kts 303°
2026-05-05 22:29 18.12409 -63.65580 5995 ft 130 kts 303°
2026-05-05 22:30 18.12911 -63.66375 5992 ft 130 kts 303°
2026-05-05 22:30 18.13218 -63.67251 5989 ft 127 kts 275°
2026-05-05 22:30 18.13354 -63.68154 5989 ft 126 kts 277°
2026-05-05 22:30 18.13504 -63.69057 5990 ft 125 kts 278°
2026-05-05 22:31 18.13652 -63.69950 5990 ft 123 kts 278°
2026-05-05 22:31 18.13801 -63.70838 5996 ft 123 kts 277°
2026-05-05 22:31 18.13951 -63.71727 5993 ft 123 kts 277°
2026-05-05 22:31 18.14099 -63.72601 5993 ft 123 kts 278°
2026-05-05 22:32 18.14249 -63.73485 5995 ft 123 kts 277°
2026-05-05 22:32 18.14398 -63.74373 5991 ft 123 kts 277°
2026-05-05 22:32 18.14548 -63.75260 5994 ft 124 kts 277°
2026-05-05 22:32 18.14698 -63.76153 5992 ft 125 kts 278°
2026-05-05 22:33 18.14851 -63.77055 5995 ft 126 kts 278°
2026-05-05 22:33 18.15005 -63.77964 5996 ft 125 kts 278°
2026-05-05 22:33 18.15156 -63.78865 5996 ft 125 kts 277°
2026-05-05 22:33 18.15308 -63.79763 5995 ft 125 kts 278°
2026-05-05 22:34 18.15458 -63.80655 5995 ft 125 kts 278°
2026-05-05 22:34 18.15610 -63.81557 6000 ft 126 kts 277°
2026-05-05 22:34 18.15763 -63.82462 5999 ft 125 kts 277°
2026-05-05 22:34 18.15915 -63.83366 5998 ft 125 kts 277°
2026-05-05 22:35 18.16067 -63.84267 5995 ft 125 kts 277°
2026-05-05 22:35 18.16219 -63.85171 5995 ft 125 kts 278°
2026-05-05 22:35 18.16368 -63.86055 5995 ft 124 kts 277°
2026-05-05 22:35 18.16518 -63.86952 5995 ft 124 kts 277°
2026-05-05 22:36 18.16669 -63.87848 5994 ft 124 kts 277°
2026-05-05 22:36 18.16820 -63.88743 5997 ft 124 kts 277°
2026-05-05 22:36 18.16969 -63.89630 5997 ft 123 kts 278°
2026-05-05 22:36 18.17118 -63.90516 5996 ft 123 kts 277°
2026-05-05 22:37 18.17266 -63.91398 5995 ft 124 kts 277°
2026-05-05 22:37 18.17416 -63.92294 5997 ft 124 kts 277°
2026-05-05 22:37 18.17567 -63.93190 5996 ft 124 kts 277°
2026-05-05 22:37 18.17715 -63.94069 5999 ft 123 kts 277°
2026-05-05 22:38 18.17863 -63.94958 5996 ft 124 kts 277°
2026-05-05 22:38 18.18014 -63.95851 5995 ft 124 kts 277°
2026-05-05 22:38 18.18164 -63.96749 5992 ft 124 kts 276°
2026-05-05 22:38 18.18312 -63.97630 5996 ft 123 kts 277°
2026-05-05 22:39 18.18461 -63.98520 5996 ft 124 kts 277°
2026-05-05 22:39 18.18610 -63.99414 6002 ft 124 kts 278°
2026-05-05 22:39 18.18760 -64.00306 5995 ft 123 kts 277°
2026-05-05 22:39 18.18908 -64.01191 5998 ft 122 kts 276°
2026-05-05 22:40 18.19056 -64.02071 5997 ft 122 kts 277°
2026-05-05 22:40 18.19202 -64.02944 5996 ft 123 kts 277°
2026-05-05 22:40 18.19351 -64.03836 6001 ft 124 kts 277°
2026-05-05 22:40 18.19500 -64.04729 6002 ft 123 kts 277°
2026-05-05 22:41 18.19649 -64.05619 6002 ft 124 kts 277°
2026-05-05 22:41 18.19797 -64.06505 6002 ft 125 kts 277°
2026-05-05 22:41 18.19948 -64.07408 6004 ft 125 kts 277°
2026-05-05 22:41 18.20100 -64.08316 6007 ft 127 kts 277°
2026-05-05 22:42 18.20253 -64.09231 6009 ft 127 kts 277°
2026-05-05 22:42 18.20406 -64.10152 6009 ft 127 kts 277°
2026-05-05 22:42 18.20562 -64.11056 6008 ft 127 kts 282°
2026-05-05 22:42 18.21088 -64.11776 6004 ft 126 kts 323°
2026-05-05 22:43 18.21791 -64.12318 6005 ft 126 kts 326°
2026-05-05 22:43 18.22513 -64.12838 6006 ft 126 kts 327°
2026-05-05 22:43 18.23241 -64.13356 6005 ft 126 kts 327°
2026-05-05 22:43 18.23963 -64.13870 6009 ft 127 kts 327°
2026-05-05 22:44 18.24701 -64.14394 6010 ft 128 kts 327°
2026-05-05 22:44 18.25444 -64.14913 6012 ft 128 kts 334°
2026-05-05 22:44 18.26273 -64.15241 6013 ft 127 kts 344°
2026-05-05 22:44 18.27096 -64.15554 6013 ft 127 kts 344°
2026-05-05 22:45 18.27930 -64.15856 6012 ft 126 kts 348°
2026-05-05 22:45 18.28783 -64.16060 6013 ft 125 kts 351°
2026-05-05 22:45 18.29636 -64.16271 6009 ft 125 kts 350°
2026-05-05 22:45 18.30469 -64.16479 6010 ft 123 kts 350°
2026-05-05 22:46 18.31305 -64.16691 6009 ft 124 kts 351°
2026-05-05 22:46 18.32147 -64.16903 6011 ft 124 kts 350°
2026-05-05 22:46 18.32991 -64.17114 6012 ft 124 kts 351°
2026-05-05 22:46 18.33824 -64.17332 6010 ft 125 kts 350°
2026-05-05 22:47 18.34669 -64.17552 6010 ft 125 kts 349°
2026-05-05 22:47 18.35515 -64.17766 6009 ft 124 kts 351°
2026-05-05 22:47 18.36358 -64.17978 6008 ft 125 kts 351°
2026-05-05 22:47 18.37199 -64.18197 6011 ft 125 kts 350°
2026-05-05 22:48 18.38045 -64.18418 6007 ft 125 kts 349°
2026-05-05 22:48 18.38879 -64.18629 6011 ft 124 kts 350°
2026-05-05 22:48 18.39719 -64.18841 6012 ft 125 kts 351°
2026-05-05 22:48 18.40563 -64.19061 6010 ft 125 kts 349°
2026-05-05 22:49 18.41407 -64.19273 6014 ft 124 kts 350°
2026-05-05 22:49 18.42251 -64.19491 6010 ft 125 kts 350°
2026-05-05 22:49 18.43098 -64.19712 6014 ft 126 kts 350°
2026-05-05 22:49 18.43951 -64.19933 6014 ft 126 kts 350°
2026-05-05 22:50 18.44795 -64.20151 6014 ft 126 kts 350°
2026-05-05 22:50 18.45647 -64.20376 6013 ft 127 kts 350°
2026-05-05 22:50 18.46506 -64.20599 6014 ft 128 kts 349°
2026-05-05 22:50 18.47374 -64.20820 6012 ft 128 kts 350°